星链-30443 (STARLINK-30443 )

导读

STARLINK-30443是美国太空探索技术公司(SpaceX)于2023年9月20日发射的星链(Starlink)系列卫星,属于星链低轨互联网星座的组成部分。星链项目旨在为全球,尤其偏远、网络覆盖不足地区提供高速低延迟宽带互联网服务,该卫星入轨后,将与其他星链卫星协同,进一步扩展全球卫星互联网的覆盖范围与服务能力。

Basic Information
目录编号:
57894
目录名称:
STARLINK-30443
国际标识:
2023-146D
轨道中心:
EARTH
卫星名称:
星链-30443
卫星全名:
星链-30443 (STARLINK-30443 )
卫星状态:
在轨 (已飞行1087 天)
发射日期:
2023-09-20 UTC
国别 :
美国 (US)
星等 :
--
This satellite is enrolled in the Space Conjunction Data Service (SCDS) and the current flight risk assessment level is: No High Risk
Orbit Information
数据来源 国际轨道数据
星历时间: 2026-09-11T15:10:02+0800
10小时前
查看轨道信息
半长轴: 6861.288km
偏心率: 0.0001123
轨道倾角: 43.002°
近地点辐角 238.051°
升交点赤经 345.904°
平近点角 122.023°
近地点: 482.38km
远地点: 483.922km
周期: 94.269分钟
每日圈数: 15.275461
Detailed Information
固有亮度:
5
最大亮度:
0.3
卫星平台:
Starlink v2.0 mini
覆盖范围:
全球
运营商:
太空探索技术公司
运营商所在国:
美国
制造商(研发单位):
太空探索技术公司
制造商所在国:
美国
使用方式:
暂无
Satellite Introduction
星链(Starlink)计划是由太空探索技术公司(SpaceX)提出的一个巨型低轨卫星互联网星座项目,计划在2019年至2024年间在太空搭建由约1.2万颗卫星组成的“星链”网络,其中1584颗将部署在地球上空550千米处的近地轨道,并从2020年开始工作。该卫星仍在工作。
2D Orbit Map
3D Orbit Map
Orbit Altitude Analysis Chart
Orbit Inclination Analysis Chart
Orbit Comprehensive Analysis Chart
View Comprehensive Chart
Conjunction Data List
Event ID Objects TCA Miss Dist (km) Collision Risk Probability Collision Risk Index (CRI) Action
CDM_260913-220305-789406-396921
2026-09-13T
22:03:31+0000
0.120 km
中距离
1.026833E-3 极高风险 0.95
CDM_260912-124605-789406-659721
2026-09-12T
12:46:31+0000
0.161 km
中距离
7.982995E-4 高风险 0.93
CDM_260910-133605-789406-312222
2026-09-10T
13:36:37+0000
0.272 km
中距离
3.723202E-4 高风险 0.86
CDM_260913-103605-789406-685121
2026-09-13T
10:36:30+0000
0.867 km
远距离
1.350328E-5 中风险 0.58
CDM_260913-125705-789406-685121
2026-09-13T
12:57:44+0000
0.957 km
远距离
9.649247E-6 低风险 0.55
CDM_260914-072605-789406-216121
2026-09-14T
07:26:04+0000
1.358 km
极远距离
7.209363E-6 低风险 0.52
CDM_260910-190605-789406-312221
2026-09-10T
19:06:09+0000
1.467 km
极远距离
3.534E-6 低风险 0.46
CDM_260913-233705-789406-396921
2026-09-13T
23:37:40+0000
1.864 km
极远距离
2.640373E-6 低风险 0.43
CDM_260913-202905-789406-396921
2026-09-13T
20:29:22+0000
1.960 km
极远距离
2.311435E-6 低风险 0.42
CDM_260912-212405-789406-659721
2026-09-12T
21:24:21+0000
1.907 km
极远距离
2.211264E-6 低风险 0.42
Miss Distance Evolution Trend with All Objects
Collision Probability Evolution Trend with All Objects